SQ6ELQ-11 Weather Reports


Display with metric or nautical units.
time (UTC)temp
F
wind
direction
speed
MPH
gust
MPH
rain 1hr
in
rain 24hr
in
rain mn
in
humidity
%
barometer
mb
20260507140341 47 0 0.0 0.0 0.00 0.00 0.00 74 1013.0
20260507134511 48 0 0.0 0.0 0.00 0.00 0.00 72 1013.0
20260507132711 49 0 0.0 0.0 0.00 0.00 0.00 72 1012.9
20260507130858 49 0 0.0 0.0 0.00 0.00 0.00 73 1012.9
20260507125050 49 0 0.0 0.0 0.00 0.00 0.00 72 1012.8
20260507123315 49 0 0.0 0.0 0.00 0.00 0.00 73 1012.6
20260507121416 50 0 0.0 0.0 0.00 0.00 0.00 69 1012.5
20260507115636 50 0 0.0 0.0 0.00 0.00 0.00 67 1012.2
20260507113845 51 0 0.0 0.0 0.00 0.00 0.00 66 1012.1
20260507112053 51 0 0.0 0.0 0.00 0.00 0.00 67 1012.2
20260507110236 51 0 0.0 0.0 0.00 0.00 0.00 67 1012.0
20260507104430 51 0 0.0 0.0 0.00 0.00 0.00 68 1011.8
20260507102613 52 0 0.0 0.0 0.00 0.00 0.00 64 1011.5
20260507100846 52 0 0.0 0.0 0.00 0.00 0.00 64 1011.6
20260507095116 53 0 0.0 0.0 0.00 0.00 0.00 60 1011.3
20260507093236 56 0 0.0 0.0 0.00 0.00 0.00 60 1011.0
20260507091501 56 0 0.0 0.0 0.00 0.00 0.00 63 1010.6
20260507085741 54 0 0.0 0.0 0.00 0.00 0.00 62 1010.7
20260507083952 55 0 0.0 0.0 0.00 0.00 0.00 64 1010.5
20260507082349 53 0 0.0 0.0 0.00 0.00 0.00 67 1010.4
20260507080603 51 0 0.0 0.0 0.00 0.00 0.00 71 1010.4
20260507074726 49 0 0.0 0.0 0.00 0.00 0.00 75 1010.3
20260507073026 48 0 0.0 0.0 0.00 0.00 0.00 76 1010.3
20260507071322 50 0 0.0 0.0 0.00 0.00 0.00 77 1009.9
20260507065426 49 0 0.0 0.0 0.00 0.00 0.00 78 1009.8
20260507063458 49 0 0.0 0.0 0.00 0.00 0.00 78 1009.7
20260507061728 49 0 0.0 0.0 0.00 0.00 0.00 78 1009.7
20260507055936 51 0 0.0 0.0 0.00 0.00 0.00 77 1009.4
20260507054151 52 0 0.0 0.0 0.00 0.00 0.00 78 1009.2
20260507052426 52 0 0.0 0.0 0.00 0.00 0.00 77 1008.9
20260507050758 52 0 0.0 0.0 0.00 0.00 0.00 77 1008.9
20260507044830 51 0 0.0 0.0 0.00 0.00 0.00 77 1008.7
20260507043133 51 0 0.0 0.0 0.00 0.00 0.00 78 1008.6
20260507041344 51 0 0.0 0.0 0.00 0.00 0.00 78 1008.4
20260507035624 50 0 0.0 0.0 0.00 0.00 0.00 78 1008.3
20260507033826 50 0 0.0 0.0 0.00 0.00 0.00 79 1008.2
20260507032026 50 0 0.0 0.0 0.00 0.00 0.00 80 1008.2
20260507030146 50 0 0.0 0.0 0.00 0.00 0.00 81 1008.1
20260507024306 50 0 0.0 0.0 0.00 0.00 0.00 82 1008.0
20260507022525 50 0 0.0 0.0 0.00 0.00 0.00 82 1007.9
20260507020741 50 0 0.0 0.0 0.00 0.00 0.00 81 1007.9
20260507015011 50 0 0.0 0.0 0.00 0.00 0.00 81 1007.8
20260507013328 50 0 0.0 0.0 0.00 0.00 0.00 81 1007.5
20260507011533 50 0 0.0 0.0 0.00 0.00 0.00 82 1007.4
20260507005805 50 0 0.0 0.0 0.00 0.00 0.00 81 1007.2
20260507003950 50 0 0.0 0.0 0.00 0.00 0.00 81 1007.3
20260507002236 51 0 0.0 0.0 0.00 0.00 0.00 82 1007.4
20260507000416 51 0 0.0 0.0 0.00 0.00 0.00 81 1007.8
20260506234615 51 0 0.0 0.0 0.00 0.00 0.00 82 1008.0
20260506232711 51 0 0.0 0.0 0.00 0.00 0.00 81 1008.2
20260506231016 51 0 0.0 0.0 0.00 0.00 0.00 82 1008.2
20260506225131 51 0 0.0 0.0 0.00 0.00 0.00 81 1008.0
20260506223335 51 0 0.0 0.0 0.00 0.00 0.00 81 1007.8
20260506221501 52 0 0.0 0.0 0.00 0.00 0.00 81 1007.9
20260506215748 52 0 0.0 0.0 0.00 0.00 0.00 81 1007.7
20260506214011 52 0 0.0 0.0 0.00 0.00 0.00 80 1007.9
20260506212156 52 0 0.0 0.0 0.00 0.00 0.00 77 1007.6
20260506210431 52 0 0.0 0.0 0.00 0.00 0.00 75 1007.4
20260506204708 51 0 0.0 0.0 0.00 0.00 0.00 77 1007.3
20260506203011 52 0 0.0 0.0 0.00 0.00 0.00 77 1007.1
20260506201241 52 0 0.0 0.0 0.00 0.00 0.00 78 1006.9
20260506195421 52 0 0.0 0.0 0.00 0.00 0.00 79 1007.0
20260506193646 52 0 0.0 0.0 0.00 0.00 0.00 76 1007.3
20260506191844 52 0 0.0 0.0 0.00 0.00 0.00 75 1007.1
20260506185941 52 0 0.0 0.0 0.00 0.00 0.00 73 1007.9
20260506184136 52 0 0.0 0.0 0.00 0.00 0.00 73 1007.4
20260506182321 53 0 0.0 0.0 0.00 0.00 0.00 74 1006.7
20260506180556 55 0 0.0 0.0 0.00 0.00 0.00 75 1006.8
20260506174744 56 0 0.0 0.0 0.00 0.00 0.00 74 1007.2
20260506173021 57 0 0.0 0.0 0.00 0.00 0.00 74 1007.1
20260506171341 59 0 0.0 0.0 0.00 0.00 0.00 63 1006.5
20260506165426 59 0 0.0 0.0 0.00 0.00 0.00 60 1006.1
20260506163646 60 0 0.0 0.0 0.00 0.00 0.00 59 1006.4
20260506161824 65 0 0.0 0.0 0.00 0.00 0.00 55 1006.7
20260506154126 66 0 0.0 0.0 0.00 0.00 0.00 34 1006.7
20260506152311 72 0 0.0 0.0 0.00 0.00 0.00 27 1006.6
20260506150516 73 0 0.0 0.0 0.00 0.00 0.00 27 1006.4
20260506144627 73 0 0.0 0.0 0.00 0.00 0.00 28 1006.5
20260506143001 73 0 0.0 0.0 0.00 0.00 0.00 27 1006.5